DW7348 Weather Reports


time (UTC)temp
C
wind
direction
speed
KPH
gust
KPH
rain 1hr
cm
rain 24hr
cm
rain mn
cm
humidity
%
barometer
mb
20260504214539 27 0 1.6 8.0 0.00 0.00 0.00 30 1015.2
20260504213052 28 22 1.6 9.7 0.00 0.00 0.00 31 1015.2
20260504211549 27 111 0.0 6.4 0.00 0.00 0.00 31 1015.2
20260504210045 27 106 0.0 9.7 0.00 0.00 0.00 30 1015.4
20260504204540 27 61 1.6 11.3 0.00 0.00 0.00 30 1015.6
20260504203048 27 0 0.0 8.0 0.00 0.00 0.00 31 1015.7
20260504201540 26 102 0.0 4.8 0.00 0.00 0.00 32 1015.7
20260504200047 27 0 0.0 6.4 0.00 0.00 0.00 32 1016.0
20260504194549 26 0 0.0 11.3 0.00 0.00 0.00 34 1016.0
20260504193041 26 53 1.6 6.4 0.00 0.00 0.00 33 1016.3
20260504191541 26 312 3.2 6.4 0.00 0.00 0.00 34 1016.5
20260504190038 26 0 0.0 8.0 0.00 0.00 0.00 32 1016.9
20260504184538 25 13 0.0 6.4 0.00 0.00 0.00 34 1017.1
20260504183039 25 111 1.6 9.7 0.00 0.00 0.00 34 1017.2
20260504181546 25 96 1.6 11.3 0.00 0.00 0.00 36 1017.4
20260504180048 25 0 0.0 6.4 0.00 0.00 0.00 35 1017.5
20260504174544 24 360 3.2 8.0 0.00 0.00 0.00 36 1017.6
20260504173049 23 0 0.0 8.0 0.00 0.00 0.00 37 1017.8
20260504171549 22 0 3.2 11.3 0.00 0.00 0.00 37 1018.0
20260504081551 9 0 0.0 0.0 0.00 0.00 0.00 84 1018.9
20260504044540 11 0 0.0 0.0 0.00 0.00 0.00 79 1019.7
20260504043038 11 0 0.0 0.0 0.00 0.00 0.00 78 1019.7
20260504041539 12 0 0.0 0.0 0.00 0.00 0.00 77 1019.8
20260504040107 12 0 0.0 0.0 0.00 0.00 0.00 75 1019.8
20260504034541 12 0 0.0 0.0 0.00 0.00 0.00 74 1019.8
20260504033039 12 0 0.0 0.0 0.00 0.00 0.00 73 1019.7
20260504031539 12 0 0.0 0.0 0.00 0.00 0.00 72 1019.7
20260504030038 13 0 0.0 0.0 0.00 0.00 0.00 71 1019.5
20260504024547 13 0 0.0 0.0 0.00 0.00 0.00 69 1019.4
20260504023045 13 0 0.0 0.0 0.00 0.00 0.00 68 1019.4
20260504021540 14 0 0.0 0.0 0.00 0.00 0.00 67 1019.2
20260504020048 14 0 0.0 0.0 0.00 0.00 0.00 65 1018.9
20260504014559 15 0 0.0 0.0 0.00 0.00 0.00 63 1018.7
20260504013046 15 0 0.0 0.0 0.00 0.00 0.00 62 1018.8
20260504011543 16 0 0.0 0.0 0.00 0.00 0.00 60 1018.6
20260504010049 16 0 0.0 0.0 0.00 0.00 0.00 57 1018.4
20260504004545 17 0 0.0 0.0 0.00 0.00 0.00 54 1018.3
20260504003038 18 0 0.0 0.0 0.00 0.00 0.00 50 1018.0
20260504001546 18 0 0.0 0.0 0.00 0.00 0.00 47 1018.0
20260504000047 20 0 0.0 0.0 0.00 0.00 0.00 44 1018.0
20260503234541 21 0 0.0 0.0 0.00 0.00 0.00 41 1017.9
20260503233042 21 0 0.0 3.2 0.00 0.00 0.00 37 1017.7
20260503231539 22 0 0.0 6.4 0.00 0.00 0.00 34 1017.8
20260503230038 22 137 0.0 8.0 0.00 0.00 0.00 33 1017.8
20260503224546 22 0 0.0 4.8 0.00 0.00 0.00 32 1017.8
20260503223043 23 163 0.0 6.4 0.00 0.00 0.00 31 1017.8
20260503221550 23 132 1.6 9.7 0.00 0.00 0.00 31 1017.9
20260503220040 23 0 3.2 9.7 0.00 0.00 0.00 32 1018.1